Wind_Speed
2 4 7 8 9 10 11 13 18 22 23 22 21 25 24 21 18 18 18 18 17 17 17 17 18 19 20 20 20 15 14 15 16 18 17 17 18 18 19 21 21 24 25
5 7 9 9 9 11 15 18 24 24 21 19 21 18 15 17 20 20 19 19 19 20 20 21 22 21 19 20 20 24 22 18 17 17 19 18 18 18 18 19 23 23 25
10 11 10 10 14 18 20 25 26 21 18 18 18 17 17 18 20 22 23 23 20 20 20 19 22 25 26 24 25 25 26 26 21 17 16 17 18 19 20 19 20 24 24
10 10 14 18 19 22 26 26 22 20 19 20 18 19 22 23 24 24 26 26 25 24 22 21 22 23 24 28 28 30 31 30 26 23 17 17 18 18 19 21 21 22 24
12 15 18 20 23 25 24 22 20 19 21 21 21 22 22 24 26 28 27 24 21 19 20 20 22 22 25 27 28 32 32 33 32 26 25 20 17 18 17 19 21 22 22
16 20 22 21 24 26 25 22 22 22 24 25 26 27 28 28 28 27 26 23 19 19 18 19 18 17 21 24 24 26 29 31 34 31 23 24 23 20 20 18 19 21 22
21 19 22 23 25 21 21 20 20 21 24 27 30 31 32 30 27 27 20 20 26 26 25 25 25 26 26 25 27 26 24 26 30 35 29 22 25 25 22 21 20 21 20
18 19 20 20 17 17 20 22 24 23 26 28 28 28 15 21 12 16 23 25 24 28 28 30 32 34 37 38 36 35 34 28 26 29 34 31 23 25 26 24 22 22 21
17 18 17 15 20 29 31 31 28 27 27 25 23 15 9 6 23 21 25 28 23 27 34 35 33 33 34 35 37 37 39 40 34 29 29 35 29 25 27 28 24 22 24
16 17 20 29 35 35 30 22 25 27 27 26 20 17 13 16 14 19 20 30 34 34 36 37 35 31 27 26 25 27 32 36 38 36 31 30 32 29 25 31 29 25 24
25 28 29 30 27 23 24 23 25 26 25 21 21 22 23 19 14 14 25 24 25 30 28 30 27 27 25 21 21 23 25 28 32 33 34 31 30 29 24 29 31 27 25
23 28 26 25 24 19 18 20 23 23 21 19 17 15 15 17 18 16 17 21 23 30 27 20 21 22 22 19 19 20 23 25 28 31 27 25 25 24 31 30 30 28 25
24 24 23 22 14 12 11 14 19 22 19 17 15 14 17 18 18 17 19 21 26 34 29 31 24 19 17 19 18 17 21 23 25 26 21 20 20 23 26 29 28 26 24
26 24 22 20 22 23 27 14 14 18 16 17 16 17 15 15 16 18 20 23 31 29 35 35 31 23 18 16 15 13 12 15 17 21 24 24 25 23 24 23 19 20 21
26 21 16 17 21 22 8 12 16 15 15 15 17 18 20 19 17 17 19 21 25 33 35 32 31 24 18 19 15 12 12 10 13 17 18 29 22 24 23 27 24 23 21
19 16 13 21 19 22 15 11 12 14 16 17 18 20 21 20 20 22 26 28 29 32 36 36 38 28 19 16 21 6 8 12 10 10 15 13 19 26 26 25 29 31 29
15 18 22 25 16 15 9 11 14 16 19 20 24 23 21 22 27 31 33 31 30 30 34 37 34 31 23 17 20 15 3 9 10 13 14 14 13 20 23 24 29 24 23
15 16 18 23 19 9 9 13 17 18 22 23 23 22 26 31 34 32 28 28 28 28 28 31 30 29 22 17 18 12 17 6 12 11 14 13 13 13 21 20 18 13 12
13 20 21 14 6 8 13 15 19 22 24 25 26 29 33 33 31 28 27 28 30 25 24 21 25 24 25 24 23 23 17 14 16 13 11 12 11 13 15 23 17 12 12
18 13 11 9 9 13 15 19 23 24 24 25 29 32 32 31 30 28 27 28 25 27 26 27 25 23 21 21 23 22 21 23 17 14 14 11 7 6 10 16 19 14 16
13 12 10 10 13 17 17 21 23 24 26 31 32 31 30 30 26 26 27 28 30 28 27 25 24 24 19 16 21 20 22 23 20 19 17 13 6 2 4 8 12 12 14
12 12 11 13 18 19 19 20 24 27 30 33 31 31 31 29 28 25 30 25 22 24 26 25 24 23 23 22 14 16 13 15 17 18 17 17 16 5 3 5 8 14 16
13 15 16 19 20 15 20 24 25 29 30 28 28 29 28 26 24 23 20 18 21 20 17 19 21 23 22 19 20 18 15 16 18 16 17 19 19 19 13 7 12 12 14
17 17 17 14 12 20 23 24 28 27 26 26 24 21 22 21 19 17 23 23 20 19 19 17 18 18 17 20 21 22 23 22 23 22 19 22 21 20 21 20 16 12 12
18 16 13 13 22 18 22 26 25 24 24 23 20 19 19 19 18 19 22 23 20 18 19 20 20 21 22 23 16 16 20 22 23 23 21 22 23 19 19 20 21 22 20
15 15 15 15 15 19 22 22 21 22 23 22 19 19 17 18 18 18 19 21 19 20 18 17 16 16 18 22 26 24 22 14 15 16 15 16 16 12 8 13 16 17 18
Wind_Direction
333 317 314 321 322 321 323 326 323 321 320 313 311 318 320 314 314 309 302 302 289 284 291 292 293 296 301 311 314 317 313 304 291 286 285 278 271 260 251 248 245 241 241
270 279 282 278 283 298 304 307 318 322 318 314 317 314 305 305 306 306 307 300 293 290 283 290 285 280 277 278 287 295 298 306 309 300 291 284 277 273 262 256 249 246 242
266 257 254 275 293 295 304 315 318 314 312 310 309 305 306 307 304 302 307 308 306 299 293 285 277 282 272 264 269 275 287 292 294 300 294 288 283 275 268 259 253 247 243
267 277 293 295 296 306 316 319 314 307 303 301 298 301 306 307 306 309 312 311 309 305 300 294 288 278 274 268 265 268 273 278 287 288 288 280 279 278 273 266 259 254 248
298 302 305 308 313 320 321 316 308 305 303 301 300 297 297 300 303 308 311 311 305 299 297 298 293 290 284 276 270 267 266 269 272 281 287 283 279 272 272 271 267 259 255
313 310 311 316 324 323 315 307 304 304 304 305 302 301 303 305 308 306 304 297 294 293 288 287 289 288 283 285 280 272 272 266 260 266 275 282 283 281 274 275 272 266 258
321 311 312 312 314 305 301 301 302 303 304 308 312 305 305 305 296 294 287 291 292 292 290 289 289 290 288 287 289 286 281 277 272 258 258 266 272 273 274 269 270 271 264
308 304 302 299 302 312 318 316 316 322 327 327 325 324 312 304 275 275 285 296 295 295 290 289 292 292 294 293 288 284 284 283 280 272 255 257 259 265 268 267 265 268 262
291 292 290 297 316 324 322 321 319 321 324 327 322 324 314 290 304 306 293 293 296 294 296 301 299 299 297 294 292 291 282 279 278 277 269 254 254 258 263 263 264 267 263
293 299 315 318 314 312 313 311 322 327 326 323 315 305 296 298 311 306 295 296 301 296 299 302 305 300 298 296 289 281 279 278 275 273 272 269 257 249 257 263 262 262 261
321 320 320 312 317 315 308 306 315 321 321 320 316 313 310 309 311 297 307 314 308 309 306 301 308 300 291 290 283 279 272 267 269 271 267 267 264 246 237 252 261 256 257
320 324 322 314 307 299 319 329 325 322 322 325 324 318 320 327 323 324 313 317 314 311 312 318 307 312 318 284 274 278 274 273 267 265 264 261 261 246 242 244 249 255 247
317 317 304 290 282 288 308 320 329 331 329 337 336 329 327 325 323 324 323 325 320 312 314 314 315 320 308 294 280 278 276 273 270 266 259 255 247 255 248 249 245 244 237
314 312 304 281 291 293 298 331 321 318 323 333 332 328 325 326 322 321 319 317 311 306 310 311 314 309 310 294 294 278 278 276 283 271 256 251 244 240 246 246 235 223 226
313 303 273 261 286 296 299 307 313 319 315 322 322 321 317 317 302 299 300 295 303 305 306 309 310 310 295 298 273 320 277 269 283 276 272 256 253 239 231 240 237 237 220
303 270 248 278 288 304 309 314 307 316 311 312 318 318 311 307 296 298 300 299 298 294 293 296 297 296 293 291 296 277 309 252 263 291 280 280 254 244 238 230 236 241 239
294 275 299 316 312 310 316 313 314 312 315 315 320 315 304 301 305 306 305 302 299 298 296 296 290 282 282 276 278 262 17 1 262 278 292 294 296 261 243 232 229 233 238
313 304 299 309 304 285 315 316 322 317 320 317 315 309 308 306 307 309 306 303 303 304 298 295 295 285 270 269 250 280 263 298 334 298 274 287 297 297 251 229 189 178 198
298 303 299 293 273 304 311 317 322 321 319 317 313 307 306 309 310 308 303 301 306 304 299 309 304 292 274 250 265 267 279 285 272 306 307 281 296 307 290 203 184 185 196
292 297 282 273 286 306 303 312 322 317 311 306 305 304 305 306 305 303 304 305 303 301 297 292 298 301 283 252 257 260 266 275 280 266 286 311 301 307 290 214 192 200 204
298 298 289 273 294 312 295 312 310 306 307 308 306 303 303 303 302 294 300 297 300 298 295 293 295 292 299 262 243 252 261 271 271 269 262 264 314 291 233 220 203 197 202
319 291 279 298 301 298 305 309 309 310 311 308 308 308 306 305 304 299 297 300 295 291 286 283 284 284 284 282 262 247 258 262 267 264 271 260 256 242 168 200 229 199 198
326 282 280 300 294 293 311 311 311 312 313 313 311 309 310 310 308 310 316 317 302 301 284 280 281 276 278 279 280 274 268 265 266 267 271 264 252 238 232 210 205 187 188
303 305 306 292 298 313 309 313 314 318 320 321 322 321 320 320 326 326 326 316 308 304 290 286 287 282 272 268 266 265 264 264 264 266 266 268 260 253 239 238 233 239 206
292 298 299 299 306 307 314 318 322 326 329 332 331 330 328 326 330 329 319 321 320 318 296 285 283 281 270 262 272 257 260 258 263 264 258 254 259 262 254 240 236 238 247
302 294 301 303 303 313 319 325 329 334 335 339 340 337 332 330 338 330 323 318 318 321 317 308 295 291 282 265 252 249 251 244 258 272 269 250 255 258 265 253 240 235 231
Height
1572 1572 1572 1570 1570 1569 1568 1567 1565 1563 1562 1561 1558 1557 1555 1552 1550 1548 1546 1546 1545 1543 1542 1541 1540 1539 1538 1538 1538 1538 1538 1538 1539 1536 1534 1534 1533 1535 1535 1535 1535 1538 1540
1571 1571 1570 1569 1568 1567 1565 1563 1562 1559 1557 1556 1555 1554 1552 1550 1547 1545 1543 1542 1541 1539 1538 1536 1536 1535 1533 1532 1532 1532 1532 1531 1529 1527 1527 1527 1529 1529 1529 1529 1531 1533 1534
1569 1569 1568 1567 1565 1563 1561 1560 1557 1555 1554 1552 1551 1550 1548 1546 1543 1540 1539 1537 1537 1535 1533 1532 1531 1530 1529 1528 1526 1526 1525 1524 1525 1524 1521 1521 1523 1524 1524 1525 1527 1529 1529
1567 1567 1566 1565 1563 1560 1557 1556 1554 1552 1549 1547 1546 1545 1543 1542 1538 1536 1534 1533 1532 1530 1529 1527 1526 1524 1523 1522 1521 1521 1520 1520 1519 1520 1521 1520 1521 1521 1519 1521 1523 1523 1524
1567 1565 1564 1562 1560 1556 1553 1552 1550 1547 1544 1542 1541 1540 1540 1538 1534 1532 1529 1528 1526 1525 1524 1522 1520 1518 1517 1516 1514 1514 1514 1514 1515 1514 1514 1514 1516 1515 1517 1517 1518 1518 1518
1564 1563 1561 1558 1556 1553 1551 1549 1547 1544 1540 1537 1536 1535 1534 1532 1529 1527 1526 1523 1522 1521 1520 1518 1515 1512 1511 1509 1508 1508 1507 1507 1508 1508 1509 1507 1506 1507 1507 1509 1511 1513 1514
1561 1559 1557 1554 1551 1549 1546 1544 1542 1539 1537 1532 1529 1529 1528 1527 1525 1522 1520 1518 1516 1515 1514 1512 1510 1507 1505 1504 1502 1500 1500 1500 1500 1501 1502 1503 1502 1502 1503 1504 1505 1506 1509
1557 1555 1552 1549 1547 1545 1543 1539 1536 1534 1531 1528 1525 1523 1519 1519 1517 1517 1515 1513 1511 1509 1507 1506 1504 1501 1499 1497 1496 1494 1492 1493 1493 1494 1495 1496 1497 1497 1499 1500 1502 1503 1502
1553 1551 1548 1545 1543 1541 1537 1534 1531 1528 1526 1526 1523 1523 1518 1514 1511 1510 1509 1507 1505 1503 1501 1500 1498 1495 1493 1491 1488 1487 1486 1485 1486 1487 1487 1489 1490 1490 1492 1494 1495 1495 1496
1549 1547 1545 1543 1540 1536 1533 1529 1526 1524 1522 1520 1520 1519 1517 1514 1510 1504 1503 1501 1499 1497 1495 1492 1492 1489 1487 1484 1482 1480 1478 1477 1477 1478 1479 1480 1483 1484 1484 1484 1488 1490 1492
1547 1544 1541 1538 1535 1531 1528 1525 1522 1520 1519 1517 1515 1512 1511 1509 1507 1504 1497 1495 1493 1489 1488 1487 1485 1482 1480 1478 1475 1473 1471 1470 1469 1469 1471 1472 1474 1476 1477 1477 1479 1482 1483
1543 1539 1535 1533 1530 1528 1526 1523 1521 1517 1515 1512 1512 1509 1508 1505 1501 1498 1497 1494 1490 1483 1483 1483 1480 1477 1475 1472 1469 1467 1465 1463 1462 1462 1463 1464 1467 1468 1469 1471 1473 1476 1478
1537 1534 1531 1528 1525 1523 1520 1519 1517 1517 1514 1508 1507 1507 1504 1503 1499 1496 1493 1489 1486 1483 1478 1478 1476 1474 1470 1467 1464 1461 1459 1458 1456 1456 1457 1457 1459 1461 1462 1465 1467 1469 1472
1530 1527 1524 1521 1519 1518 1516 1514 1513 1512 1511 1508 1505 1503 1501 1499 1497 1494 1490 1487 1480 1479 1474 1471 1470 1470 1466 1461 1459 1456 1455 1454 1452 1450 1451 1452 1452 1454 1455 1460 1461 1463 1465
1522 1520 1518 1517 1516 1513 1512 1511 1512 1509 1507 1504 1503 1500 1498 1495 1493 1490 1487 1485 1481 1471 1466 1464 1464 1464 1461 1458 1456 1452 1451 1450 1449 1447 1445 1446 1446 1447 1448 1453 1456 1459 1460
1517 1516 1515 1514 1511 1509 1508 1508 1507 1505 1503 1501 1498 1495 1493 1490 1488 1485 1483 1480 1477 1472 1462 1461 1457 1457 1456 1454 1451 1449 1447 1446 1445 1443 1442 1442 1441 1442 1443 1445 1450 1451 1456
1514 1512 1511 1510 1508 1507 1506 1505 1504 1502 1499 1496 1493 1490 1488 1485 1481 1478 1476 1472 1468 1465 1458 1452 1450 1449 1449 1449 1447 1446 1444 1443 1442 1440 1439 1438 1437 1437 1438 1439 1442 1445 1450
1511 1511 1508 1506 1505 1504 1502 1502 1500 1497 1494 1491 1488 1484 1482 1478 1475 1471 1468 1465 1461 1458 1453 1447 1443 1441 1442 1443 1442 1441 1441 1440 1439 1438 1435 1433 1433 1433 1433 1434 1436 1439 1446
1508 1506 1504 1502 1501 1501 1499 1498 1495 1492 1489 1486 1483 1479 1475 1471 1467 1464 1461 1458 1454 1450 1448 1443 1437 1436 1434 1436 1437 1437 1437 1436 1437 1436 1433 1431 1429 1428 1428 1430 1434 1437 1440
1503 1501 1499 1498 1498 1497 1495 1493 1490 1487 1484 1481 1478 1473 1468 1464 1460 1457 1454 1451 1447 1444 1441 1438 1435 1431 1429 1430 1431 1431 1432 1432 1433 1433 1433 1429 1428 1426 1425 1426 1430 1433 1439
1500 1498 1496 1495 1495 1493 1492 1489 1486 1483 1479 1475 1471 1466 1461 1458 1455 1452 1448 1444 1441 1437 1435 1432 1430 1428 1426 1424 1425 1426 1427 1426 1427 1427 1428 1428 1427 1425 1424 1426 1428 1430 1435
1497 1495 1493 1492 1491 1489 1487 1485 1481 1478 1474 1468 1462 1457 1453 1450 1447 1443 1440 1437 1435 1431 1428 1427 1425 1424 1422 1421 1420 1421 1422 1422 1422 1423 1423 1424 1425 1425 1424 1425 1427 1429 1432
1495 1492 1490 1489 1487 1485 1483 1480 1477 1473 1467 1462 1456 1451 1447 1444 1440 1436 1433 1431 1428 1426 1423 1422 1419 1419 1418 1418 1417 1416 1417 1418 1418 1419 1419 1418 1420 1421 1424 1424 1426 1428 1430
1491 1489 1487 1485 1484 1481 1479 1476 1472 1467 1462 1456 1451 1446 1442 1438 1435 1432 1429 1426 1423 1420 1418 1416 1415 1413 1412 1412 1412 1412 1412 1412 1413 1413 1414 1413 1415 1416 1418 1421 1423 1425 1427
1487 1486 1484 1483 1480 1477 1475 1470 1466 1461 1456 1451 1447 1443 1439 1435 1432 1431 1426 1422 1418 1415 1413 1411 1410 1408 1407 1406 1406 1406 1406 1407 1406 1407 1409 1409 1410 1411 1412 1414 1418 1421 1423
1484 1482 1480 1479 1476 1474 1470 1466 1462 1457 1452 1447 1444 1440 1436 1433 1430 1427 1423 1419 1415 1412 1409 1406 1404 1402 1400 1399 1400 1401 1402 1402 1403 1403 1404 1406 1406 1408 1408 1408 1411 1414 1417